Location: Hradec Kralove
(50.2170°N, 15.8330°E)
Time: 20:56:38
(UTC+01:00)

N. Korean satellite - Visible Passes

Search period start: 24 March 2023 00:00
Search period end: 03 April 2023 01:00
Orbit: 393 x 418 km, 97.3° (Epoch: 24 March)

Date Brightness Start Highest point End Pass type
(mag) Time Alt. Az. Time Alt. Az. Time Alt. Az.
24 Mar 9.4 04:40:20 10° NE 04:42:29 17° E 04:44:37 10° SE visible
26 Mar 9.5 05:35:10 10° NE 05:37:00 14° E 05:38:49 10° SE visible
28 Mar 9.7 05:29:20 10° ENE 05:30:40 12° E 05:31:59 10° ESE visible
02 Apr 8.9 05:54:51 10° NE 05:57:25 23° E 05:59:58 10° SSE visible
